NOAA 16 DEB, 41133

Orbit data source: Space-Track

NOAA 16 DEB, 41133 is space debris in SSO originally from a launch on Thu, 21 Sep 2000 UTC launched from the Air Force Western Test Range (AFWTR). Debris objects in space refer to the collection of defunct objects orbiting the Earth. Examples of debris include non-operational satellites, rocket bodies, and fragments generated from explosions, collisions, or faulty payload assembly.

Loading next visibility...
Identifier
41133, 2000-055BQ
Orbit
SSO
Country
Flag of USUS
Related business
Manufacturer
Unknown
Mission
Spacecraft
Bus & Motor
Unknown
Mass
Unknown
Launch date (UTC)
2000-09-21 (26 years ago)
Launch vehicle
Unknown
Launch site
Air Force Western Test Range (AFWTR)
Object type
Payload
Rocket body
Debris
Shape & HBR
Unknown shape, 0.1 m
Radar Cross Section
Medium (>0.1 m² and <1 m²)

Expand to show TLE details & history
Last TLE update: 2 days ago

TLE from 2 days ago
0 NOAA 16 DEB
1 41133U 00055BQ  26170.95019364  .00017743  00000-0  30695-2 0  9992
2 41133  98.9196 349.0491 0002206  86.2298 273.9156 14.68410936546887
Epoch: 2026-06-19T22:48Z
TLE epoch observation values (Epoch: 2026-06-19T22:48:16.730Z)
Latitude
-0.00009°
Longitude
98.80758°
Altitude
669.013 km
Speed
7.523 km/s
True Right ascension
23h 16m 11s
True Declination
0° 00' 00"
Sunlit
Object was in daylight at epoch
Visualization orbit readout
Latitude
Unknown
Longitude
Unknown
Altitude
Unknown
Speed
Unknown
Apparent Right ascension
Unknown
Apparent Declination
Unknown
Sunlit
N/A
Visualization observer readout
Local Sidereal Time
21:39:16
Azimuth
Unknown
Elevation
Unknown
Doppler factor
Unknown
Orbital elements
Apogee altitude
664.804 km
Perigee altitude
661.697 km
Semi-major axis
7,041.387 km
Eccentricity
0.00022
Inclination
98.9196°
RAAN
349.0491°
Arg. of periapsis
86.2298°
True anomaly
273.89038°
Mean anomaly
273.9156°
Eccentric anomaly
273.90299°
Mean motion
3.6733 °/min
Orbital period
98 mins
BSTAR
0.0030695
Loading maneuver chart data...
Computing Atmospheric mass density...
Loading historical data...
Loading historical data...
Loading historical data...
Loading historical data...
Loading historical data...
Loading historical data...
Loading historical data...

Documentation

Showing up to 5 results
|